,,PA_Meas_PMT16A,,PR_Meas_QMR101_102,,RH_Meas_QMH101,,SR_Meas_QMS101,,TA_Meas_QMH101,,GenWind,,GenWind,
time,status,PA,status,PR,status,RH,status,SR,status,TA,status,DirAvg,status,SpdAvg,
2013-03-28, 00:00:04,VALID,918.353,VALID,0,VALID,97.1223,VALID,0,VALID,19.9953,VALID,99,VALID,0,
2013-03-28, 00:01:04,VALID,918.321,VALID,0,VALID,97.1299,VALID,0,VALID,19.9758,VALID,99,VALID,0,
2013-03-28, 00:02:04,VALID,918.348,VALID,0,VALID,97.1223,VALID,0,VALID,20.0163,VALID,99,VALID,0,
2013-03-28, 00:03:04,VALID,918.361,VALID,0,VALID,97.1223,VALID,0,VALID,19.9773,VALID,99,VALID,0,
2013-03-28, 00:04:04,VALID,918.346,VALID,0,VALID,97.1147,VALID,0,VALID,19.9563,VALID,99,VALID,0,
2013-03-28, 00:05:04,VALID,918.37,VALID,0,VALID,97.1376,VALID,0,VALID,19.9563,VALID,99,VALID,0,
2013-03-28, 00:06:04,VALID,918.353,VALID,0,VALID,97.1147,VALID,0,VALID,19.9563,VALID,99,VALID,0,
2013-03-28, 00:07:04,VALID,918.348,VALID,0,VALID,97.1452,VALID,0,VALID,19.9563,VALID,99,VALID,0,
2013-03-28, 00:08:04,VALID,918.321,VALID,0,VALID,97.1528,VALID,0,VALID,19.9953,VALID,99,VALID,0,
2013-03-28, 00:09:04,VALID,918.313,VALID,0,VALID,97.1528,VALID,0,VALID,20.0148,VALID,99,VALID,0,
2013-03-28, 00:10:04,VALID,918.259,VALID,0,VALID,97.1376,VALID,0,VALID,20.0343,VALID,99,VALID,0,
2013-03-28, 00:11:04,VALID,918.174,VALID,0,VALID,97.1528,VALID,0,VALID,20.0733,VALID,99,VALID,0,
2013-03-28, 00:12:04,VALID,918.187,VALID,0,VALID,97.1681,VALID,0,VALID,20.0733,VALID,99,VALID,0,
2013-03-28, 00:13:04,VALID,918.172,VALID,0,VALID,97.1604,VALID,0,VALID,20.0944,VALID,99,VALID,0,
2013-03-28, 00:14:04,VALID,918.137,VALID,0,VALID,97.1757,VALID,0,VALID,20.0538,VALID,99,VALID,0,
2013-03-28, 00:15:04,VALID,918.111,VALID,0,VALID,97.1452,VALID,0,VALID,20.0928,VALID,99,VALID,0,
2013-03-28, 00:16:04,VALID,918.146,VALID,0,VALID,97.1604,VALID,0,VALID,20.0733,VALID,99,VALID,0,
2013-03-28, 00:17:04,VALID,918.122,VALID,0,VALID,97.1452,VALID,0,VALID,20.0749,VALID,99,VALID,0,
2013-03-28, 00:18:04,VALID,918.147,VALID,0,VALID,97.1681,VALID,0,VALID,20.0538,VALID,99,VALID,0,
2013-03-28, 00:19:04,VALID,918.143,VALID,0,VALID,97.1909,VALID,0,VALID,20.0538,VALID,99,VALID,0,
2013-03-28, 00:20:04,VALID,918.09,VALID,0,VALID,97.1681,VALID,0,VALID,20.0733,VALID,99,VALID,0,
2013-03-28, 00:21:04,VALID,918.036,VALID,0,VALID,97.1604,VALID,0,VALID,20.0538,VALID,99,VALID,0,
2013-03-28, 00:22:04,VALID,918.049,VALID,0,VALID,97.1757,VALID,0,VALID,20.0749,VALID,99,VALID,0,
2013-03-28, 00:23:04,VALID,918.007,VALID,0,VALID,97.1528,VALID,0,VALID,20.0538,VALID,99,VALID,0,
2013-03-28, 00:24:04,VALID,918.006,VALID,0,VALID,97.1986,VALID,0,VALID,20.0538,VALID,99,VALID,0,
2013-03-28, 00:25:04,VALID,917.932,VALID,0,VALID,97.1909,VALID,0,VALID,20.0343,VALID,99,VALID,0,
2013-03-28, 00:26:04,VALID,917.914,VALID,0,VALID,97.1757,VALID,0,VALID,20.0733,VALID,99,VALID,0,
2013-03-28, 00:27:04,VALID,917.883,VALID,0,VALID,97.1909,VALID,0,VALID,20.0733,VALID,99,VALID,0,
2013-03-28, 00:28:04,VALID,917.843,VALID,0,VALID,97.1757,VALID,0,VALID,20.0553,VALID,99,VALID,0,
2013-03-28, 00:29:04,VALID,917.763,VALID,0,VALID,97.1681,VALID,0,VALID,19.9773,VALID,99,VALID,0,
2013-03-28, 00:30:04,VALID,917.734,VALID,0,VALID,97.1986,VALID,0,VALID,19.8783,VALID,99,VALID,0,
2013-03-28, 00:31:04,VALID,917.754,VALID,0,VALID,97.1833,VALID,0,VALID,19.8603,VALID,99,VALID,0,
2013-03-28, 00:32:04,VALID,917.681,VALID,0,VALID,97.1909,VALID,0,VALID,19.8393,VALID,99,VALID,0,
2013-03-28, 00:33:04,VALID,917.671,VALID,0,VALID,97.1833,VALID,0,VALID,19.8393,VALID,99,VALID,0,
2013-03-28, 00:34:04,VALID,917.73,VALID,0,VALID,97.1909,VALID,0,VALID,19.8798,VALID,99,VALID,0,
2013-03-28, 00:35:04,VALID,917.751,VALID,0,VALID,97.1909,VALID,0,VALID,19.8588,VALID,99,VALID,0,
2013-03-28, 00:36:04,VALID,917.665,VALID,0,VALID,97.1986,VALID,0,VALID,19.8603,VALID,99,VALID,0,
2013-03-28, 00:37:04,VALID,917.565,VALID,0,VALID,97.2138,VALID,0,VALID,19.8198,VALID,99,VALID,0,
2013-03-28, 00:38:04,VALID,917.637,VALID,0,VALID,97.2062,VALID,0,VALID,19.8003,VALID,99,VALID,0,
2013-03-28, 00:39:04,VALID,917.665,VALID,0,VALID,97.2062,VALID,0,VALID,19.7823,VALID,99,VALID,0,
2013-03-28, 00:40:04,VALID,917.721,VALID,0,VALID,97.1986,VALID,0,VALID,19.7823,VALID,99,VALID,0,
2013-03-28, 00:41:04,VALID,917.724,VALID,0,VALID,97.2138,VALID,0,VALID,19.7418,VALID,99,VALID,0,
2013-03-28, 00:42:04,VALID,917.476,VALID,0,VALID,97.2214,VALID,0,VALID,19.7418,VALID,99,VALID,0,
2013-03-28, 00:43:04,VALID,917.927,VALID,0,VALID,97.229,VALID,0,VALID,19.7823,VALID,99,VALID,0,
2013-03-28, 00:44:04,VALID,917.677,VALID,0,VALID,97.229,VALID,0,VALID,19.7808,VALID,99,VALID,0,
2013-03-28, 00:45:04,VALID,917.696,VALID,0,VALID,97.2443,VALID,0,VALID,19.7613,VALID,99,VALID,0,
2013-03-28, 00:46:04,VALID,917.681,VALID,0,VALID,97.2367,VALID,0,VALID,19.7223,VALID,99,VALID,0,
2013-03-28, 00:47:04,VALID,917.207,VALID,0,VALID,97.229,VALID,0,VALID,19.7043,VALID,99,VALID,0,
2013-03-28, 00:48:04,VALID,917.378,VALID,0,VALID,97.229,VALID,0,VALID,19.6833,VALID,99,VALID,0,
2013-03-28, 00:49:04,VALID,917.496,VALID,0,VALID,97.2214,VALID,0,VALID,19.7043,VALID,99,VALID,0,
2013-03-28, 00:50:04,VALID,917.786,VALID,0,VALID,97.2367,VALID,0,VALID,19.6833,VALID,99,VALID,0,
2013-03-28, 00:51:04,VALID,917.675,VALID,0,VALID,97.2519,VALID,0,VALID,19.6458,VALID,99,VALID,0,
2013-03-28, 00:52:04,VALID,917.649,VALID,0,VALID,97.2595,VALID,0,VALID,19.5858,VALID,99,VALID,0,
2013-03-28, 00:53:04,VALID,917.763,VALID,0,VALID,97.2519,VALID,0,VALID,19.5663,VALID,99,VALID,0,
2013-03-28, 00:54:04,VALID,917.812,VALID,0,VALID,97.2595,VALID,0,VALID,19.5678,VALID,99,VALID,0,
2013-03-28, 00:55:04,VALID,917.761,VALID,0,VALID,97.2748,VALID,0,VALID,19.5873,VALID,99,VALID,0,
2013-03-28, 00:56:04,VALID,917.901,VALID,0,VALID,97.2519,VALID,0,VALID,19.5678,VALID,99,VALID,0,
2013-03-28, 00:57:04,VALID,918.356,VALID,0,VALID,97.2748,VALID,0,VALID,19.5468,VALID,99,VALID,0,
2013-03-28, 00:58:04,VALID,917.238,VALID,0,VALID,97.2672,VALID,0,VALID,19.5468,VALID,99,VALID,0,
2013-03-28, 00:59:04,VALID,917.775,VALID,0,VALID,97.2824,VALID,0,VALID,19.5873,VALID,99,VALID,0,
2013-03-28, 01:00:04,VALID,916.777,VALID,0,VALID,97.29,VALID,0,VALID,19.5873,VALID,99,VALID,0,
2013-03-28, 01:01:04,VALID,917.27,VALID,0,VALID,97.29,VALID,0,VALID,19.5663,VALID,99,VALID,0,
2013-03-28, 01:02:04,VALID,918.323,VALID,0,VALID,97.29,VALID,0,VALID,19.5468,VALID,99,VALID,0,
2013-03-28, 01:03:04,VALID,917.383,VALID,0,VALID,97.3053,VALID,0,VALID,19.6068,VALID,99,VALID,0,
2013-03-28, 01:04:04,VALID,916.969,VALID,0,VALID,97.3053,VALID,0,VALID,19.6263,VALID,99,VALID,0,
2013-03-28, 01:05:04,VALID,918.322,VALID,0,VALID,97.3205,VALID,0,VALID,19.6458,VALID,99,VALID,0,
2013-03-28, 01:06:04,VALID,917.906,VALID,0,VALID,97.3281,VALID,0,VALID,19.6638,VALID,99,VALID,0,
2013-03-28, 01:07:04,VALID,917.146,VALID,0,VALID,97.2977,VALID,0,VALID,19.6638,VALID,99,VALID,0,
2013-03-28, 01:08:04,VALID,918.111,VALID,0,VALID,97.3205,VALID,0,VALID,19.6458,VALID,99,VALID,0,
2013-03-28, 01:09:04,VALID,917.671,VALID,0,VALID,97.3129,VALID,0,VALID,19.6263,VALID,99,VALID,0,
2013-03-28, 01:10:04,VALID,917.691,VALID,0,VALID,97.2977,VALID,0,VALID,19.5873,VALID,99,VALID,0,
2013-03-28, 01:11:04,VALID,919.176,VALID,0,VALID,97.3129,VALID,0,VALID,19.5273,VALID,99,VALID,0,
2013-03-28, 07:31:04,VALID,914.275,VALID,0,VALID,97.6102,VALID,126.458,VALID,19.4298,VALID,135,VALID,0,
2013-03-28, 07:32:04,INVALID,917.512,VALID,0,VALID,97.6178,VALID,146.442,VALID,19.4493,VALID,177,VALID,0,
2013-03-28, 07:33:04,VALID,918.703,VALID,0,VALID,97.595,VALID,164.815,VALID,19.4688,VALID,156,VALID,0,
2013-03-28, 07:34:04,VALID,917.56,VALID,0,VALID,97.5873,VALID,172.55,VALID,19.4673,VALID,157,VALID,0,
2013-03-28, 07:35:04,INVALID,919.984,VALID,0,VALID,97.5797,VALID,177.6,VALID,19.4493,VALID,172,VALID,0,
2013-03-28, 07:36:04,VALID,917.45,VALID,0,VALID,97.595,VALID,187.915,VALID,19.5273,VALID,142,VALID,0,
2013-03-28, 07:37:04,INVALID,913.895,VALID,0,VALID,97.5797,VALID,201.882,VALID,19.6053,VALID,150,VALID,0,
2013-03-28, 07:38:04,INVALID,921.591,VALID,0,VALID,97.5492,VALID,215.634,VALID,19.6443,VALID,167,VALID,0,
2013-03-28, 07:39:04,VALID,917.159,VALID,0,VALID,97.5569,VALID,222.94,VALID,19.7223,VALID,149,VALID,0,
2013-03-28, 07:40:04,INVALID,921.248,VALID,0,VALID,97.5416,VALID,226.379,VALID,19.7808,VALID,167,VALID,0,
2013-03-28, 07:41:04,VALID,921.139,VALID,0,VALID,97.5264,VALID,232.18,VALID,19.8783,VALID,130,VALID,0,
2013-03-28, 07:42:04,INVALID,914.46,VALID,0,VALID,97.5187,VALID,238.734,VALID,19.8768,VALID,161,VALID,0,
2013-03-28, 07:43:04,VALID,921.664,VALID,0,VALID,97.5035,VALID,245.288,VALID,19.9758,VALID,167,VALID,0,
2013-03-28, 07:44:04,INVALID,917.749,VALID,0,VALID,97.4882,VALID,250.66,VALID,19.9743,VALID,154,VALID,0,
2013-03-28, 07:45:04,VALID,919.143,VALID,0,VALID,97.4959,VALID,254.743,VALID,20.1318,VALID,133,VALID,0,
2013-03-28, 07:46:04,VALID,918.101,VALID,0,VALID,97.4806,VALID,259.041,VALID,20.1318,VALID,156,VALID,0,
2013-03-28, 07:47:04,INVALID,920.553,VALID,0,VALID,97.4273,VALID,262.694,VALID,20.1708,VALID,174,VALID,0,
2013-03-28, 07:48:04,VALID,917.716,VALID,0,VALID,97.4425,VALID,266.024,VALID,20.1708,VALID,146,VALID,0,
2013-03-28, 07:49:04,VALID,917.918,VALID,0,VALID,97.4044,VALID,269.355,VALID,20.1498,VALID,160,VALID,0,
2013-03-28, 07:50:04,VALID,917.65,VALID,0,VALID,97.3815,VALID,272.793,VALID,20.2278,VALID,154,VALID,0,
2013-03-28, 07:51:04,VALID,915.828,VALID,0,VALID,97.3891,VALID,277.413,VALID,20.2083,VALID,167,VALID,0,
2013-03-28, 07:52:04,VALID,917.586,VALID,0,VALID,97.3281,VALID,281.711,VALID,20.3058,VALID,174,VALID,0,
2013-03-28, 07:53:04,VALID,917.218,VALID,0,VALID,97.3205,VALID,286.223,VALID,20.3838,VALID,160,VALID,0,
2013-03-28, 07:54:04,VALID,917.593,VALID,0,VALID,97.3053,VALID,290.306,VALID,20.3838,VALID,162,VALID,0,
2013-03-28, 07:55:04,VALID,917.182,VALID,0,VALID,97.2595,VALID,294.066,VALID,20.4618,VALID,145,VALID,0,
2013-03-28, 07:56:04,VALID,917.28,VALID,0,VALID,97.2214,VALID,297.182,VALID,20.4813,VALID,135,VALID,0,
2013-03-28, 07:57:04,VALID,917.252,VALID,0,VALID,97.1604,VALID,300.943,VALID,20.5204,VALID,129,VALID,0,
2013-03-28, 07:58:04,VALID,918.436,VALID,0,VALID,97.1223,VALID,303.629,VALID,20.6374,VALID,154,VALID,0,
2013-03-28, 07:59:04,VALID,917.592,VALID,0,VALID,97.0537,VALID,307.067,VALID,20.7349,VALID,140,VALID,0,
2013-03-28, 08:00:04,VALID,918.429,VALID,0,VALID,97.0385,VALID,310.397,VALID,20.7934,VALID,131,VALID,0,
2013-03-28, 08:01:04,VALID,916.899,VALID,0,VALID,96.9775,VALID,312.976,VALID,20.891,VALID,129,VALID,0,
2013-03-28, 08:02:04,VALID,918.588,VALID,0,VALID,96.9241,VALID,315.984,VALID,20.93,VALID,161,VALID,0,
2013-03-28, 08:03:04,INVALID,920.617,VALID,0,VALID,96.8021,VALID,318.993,VALID,20.9706,VALID,146,VALID,0,
2013-03-28, 08:04:04,INVALID,914.476,VALID,0,VALID,96.6649,VALID,322.216,VALID,20.9885,VALID,135,VALID,0,
2013-03-28, 08:05:04,VALID,918.007,VALID,0,VALID,96.5048,VALID,326.084,VALID,21.047,VALID,142,VALID,0,
2013-03-28, 08:06:04,VALID,919.622,VALID,0,VALID,96.2914,VALID,329.415,VALID,21.1055,VALID,177,VALID,0,
2013-03-28, 08:07:04,VALID,917.937,VALID,0,VALID,95.9941,VALID,332.96,VALID,21.1445,VALID,162,VALID,0,
2013-03-28, 08:08:04,VALID,917.856,VALID,0,VALID,95.651,VALID,336.291,VALID,21.2226,VALID,144,VALID,0,
2013-03-28, 08:09:04,VALID,917.503,VALID,0,VALID,94.9039,VALID,339.729,VALID,21.221,VALID,172,VALID,0,
2013-03-28, 08:10:04,VALID,919.206,VALID,0,VALID,94.7057,VALID,343.167,VALID,21.299,VALID,154,VALID,0,
2013-03-28, 08:11:04,VALID,918.286,VALID,0,VALID,94.1644,VALID,346.498,VALID,21.338,VALID,148,VALID,0,
2013-03-28, 08:12:04,VALID,917.667,VALID,0,VALID,93.6689,VALID,350.151,VALID,21.3608,VALID,139,VALID,0,
2013-03-28, 08:13:04,VALID,917.624,VALID,0,VALID,93.6918,VALID,354.126,VALID,21.4567,VALID,156,VALID,0,
2013-03-28, 08:14:04,VALID,917.556,VALID,0,VALID,92.9828,VALID,357.672,VALID,21.5347,VALID,163,VALID,0,
2013-03-28, 08:15:04,VALID,915.902,VALID,0,VALID,92.3272,VALID,361.217,VALID,21.6518,VALID,161,VALID,0,
2013-03-28, 08:16:04,INVALID,920.688,VALID,0,VALID,91.7478,VALID,365.085,VALID,21.829,VALID,133,VALID,0,
2013-03-28, 08:17:04,VALID,919.834,VALID,0,VALID,91.1456,VALID,368.523,VALID,22.003,VALID,98,VALID,0,
2013-03-28, 08:18:04,INVALID,915.66,VALID,0,VALID,90.185,VALID,368.845,VALID,22.1201,VALID,130,VALID,0,
2013-03-28, 08:19:04,VALID,919.917,VALID,0,VALID,87.1966,VALID,375.722,VALID,22.1591,VALID,126,VALID,0,
2013-03-28, 08:20:04,VALID,919.386,VALID,0,VALID,87.1966,VALID,377.656,VALID,22.2371,VALID,134,VALID,0,
2013-03-28, 08:21:04,VALID,919.968,VALID,0,VALID,88.9881,VALID,384.21,VALID,22.3933,VALID,74,VALID,0,
2013-03-28, 08:22:04,VALID,921.733,VALID,0,VALID,86.8764,VALID,387.54,VALID,22.4713,VALID,102,VALID,0,
2013-03-28, 08:23:04,INVALID,917.952,VALID,0,VALID,87.7836,VALID,389.797,VALID,22.647,VALID,70,VALID,0,
2013-03-28, 08:24:04,INVALID,914.328,VALID,0,VALID,87.3339,VALID,398.177,VALID,22.7445,VALID,80,VALID,0,
2013-03-28, 08:25:04,VALID,914.873,VALID,0,VALID,83.4459,VALID,403.119,VALID,22.725,VALID,93,VALID,0,
2013-03-28, 08:26:04,INVALID,920.103,VALID,0,VALID,85.3823,VALID,406.342,VALID,22.686,VALID,127,VALID,0,
2013-03-28, 08:27:04,INVALID,917.237,VALID,0,VALID,87.1128,VALID,409.673,VALID,22.7836,VALID,111,VALID,0,
2013-03-28, 08:28:04,VALID,918.06,VALID,0,VALID,86.419,VALID,413.219,VALID,22.9202,VALID,147,VALID,0,
2013-03-28, 08:29:04,VALID,917.536,VALID,0,VALID,84.8334,VALID,416.12,VALID,23.0356,VALID,154,VALID,0,
2013-03-28, 08:30:04,VALID,916.952,VALID,0,VALID,84.5589,VALID,418.268,VALID,23.1544,VALID,157,VALID,0,
2013-03-28, 08:31:04,INVALID,920.352,VALID,0,VALID,83.545,VALID,421.492,VALID,23.1722,VALID,129,VALID,0,
2013-03-28, 08:32:04,VALID,916.552,VALID,0,VALID,84.6428,VALID,425.145,VALID,23.2502,VALID,76,VALID,0,
2013-03-28, 08:33:04,VALID,918.327,VALID,0,VALID,83.0876,VALID,429.013,VALID,23.3088,VALID,91,VALID,0,
2013-03-28, 08:34:04,INVALID,911.683,VALID,0,VALID,82.6302,VALID,432.988,VALID,23.2698,VALID,102,VALID,0,
2013-03-28, 08:35:04,VALID,918.097,VALID,0,VALID,83.3087,VALID,436.104,VALID,23.2715,VALID,88,VALID,0,
2013-03-28, 08:36:04,INVALID,920.268,VALID,0,VALID,82.9809,VALID,439.434,VALID,23.2307,VALID,110,VALID,0,
2013-03-28, 08:37:04,INVALID,913.768,VALID,0,VALID,81.0445,VALID,446.955,VALID,23.1527,VALID,90,VALID,0,
2013-03-28, 08:38:04,VALID,918.031,VALID,0,VALID,84.4598,VALID,452.864,VALID,23.1917,VALID,79,VALID,0,
2013-03-28, 08:39:04,VALID,917.758,VALID,0,VALID,84.0177,VALID,456.195,VALID,23.2502,VALID,117,VALID,0,
2013-03-28, 08:40:04,VALID,919.394,VALID,0,VALID,79.8172,VALID,461.03,VALID,23.2502,VALID,120,VALID,0,
2013-03-28, 08:41:04,VALID,918.269,VALID,0,VALID,83.5526,VALID,464.468,VALID,23.2893,VALID,152,VALID,0,
2013-03-28, 08:42:04,VALID,917.896,VALID,0,VALID,84.7876,VALID,468.336,VALID,23.4845,VALID,101,VALID,0,
2013-03-28, 08:43:04,VALID,918.692,VALID,0,VALID,81.8526,VALID,471.989,VALID,23.6034,VALID,96,VALID,0,
2013-03-28, 08:44:04,VALID,918.059,VALID,0,VALID,80.0001,VALID,475.105,VALID,23.6424,VALID,111,VALID,0,
2013-03-28, 08:45:04,VALID,919.604,VALID,0,VALID,80.6024,VALID,477.254,VALID,23.6406,VALID,59,VALID,0,
2013-03-28, 08:46:04,INVALID,911.499,VALID,0,VALID,81.5096,VALID,477.898,VALID,23.7596,VALID,78,VALID,0,
2013-03-28, 08:47:04,INVALID,917.387,VALID,0,VALID,79.497,VALID,479.617,VALID,23.7986,VALID,69,VALID,0,
2013-03-28, 08:48:04,VALID,920.114,VALID,0,VALID,81.1665,VALID,482.841,VALID,23.8163,VALID,48,VALID,0,
2013-03-28, 08:49:04,VALID,919.194,VALID,0,VALID,81.1208,VALID,486.494,VALID,24.0524,VALID,52,VALID,0,
2013-03-28, 08:50:04,VALID,917.778,VALID,0,VALID,80.5185,VALID,490.899,VALID,24.111,VALID,120,VALID,0,
2013-03-28, 08:51:04,VALID,918.186,VALID,0,VALID,78.0333,VALID,487.353,VALID,24.1092,VALID,172,VALID,0,
2013-03-28, 08:52:04,VALID,917.987,VALID,0,VALID,77.6369,VALID,489.609,VALID,23.9725,VALID,169,VALID,0,
2013-03-28, 08:53:04,VALID,918.924,VALID,0,VALID,78.5898,VALID,493.907,VALID,23.8944,VALID,183,VALID,0,
2013-03-28, 08:54:04,VALID,919.286,VALID,0,VALID,79.6418,VALID,500.246,VALID,23.9743,VALID,172,VALID,0,
2013-03-28, 08:55:04,VALID,918.147,VALID,0,VALID,78.9252,VALID,505.94,VALID,24.1092,VALID,185,VALID,0,
2013-03-28, 08:56:04,INVALID,921.031,VALID,0,VALID,78.0028,VALID,510.775,VALID,24.3239,VALID,185,VALID,0,
2013-03-28, 08:57:04,VALID,920.812,VALID,0,VALID,78.4373,VALID,510.56,VALID,24.3825,VALID,168,VALID,0,
2013-03-28, 08:58:04,INVALID,914.721,VALID,0,VALID,77.8275,VALID,516.147,VALID,24.3825,VALID,147,VALID,0,
2013-03-28, 08:59:04,INVALID,912.696,VALID,0,VALID,78.3687,VALID,513.784,VALID,24.4997,VALID,154,VALID,0,
2013-03-28, 09:00:04,INVALID,918.751,VALID,0,VALID,74.3359,VALID,516.792,VALID,24.5192,VALID,165,VALID,0,
2013-03-28, 09:01:04,VALID,918.045,VALID,0,VALID,74.3664,VALID,519.048,VALID,24.4997,VALID,164,VALID,0,
2013-03-28, 09:02:04,VALID,917.813,VALID,0,VALID,74.8543,VALID,517.544,VALID,24.4606,VALID,171,VALID,0,
2013-03-28, 09:03:04,VALID,917.896,VALID,0,VALID,74.9077,VALID,519.263,VALID,24.5387,VALID,174,VALID,0,
2013-03-28, 09:04:04,VALID,918.888,VALID,0,VALID,75.0449,VALID,515.503,VALID,24.6168,VALID,174,VALID,0,
2013-03-28, 09:05:04,VALID,919.112,VALID,0,VALID,74.4274,VALID,500.246,VALID,24.654,VALID,167,VALID,0,
2013-03-28, 09:06:04,VALID,918.217,VALID,0,VALID,74.7476,VALID,499.924,VALID,24.7144,VALID,130,VALID,0,
2013-03-28, 09:07:04,VALID,919.413,VALID,0,VALID,75.4947,VALID,514.106,VALID,24.773,VALID,149,VALID,0,
2013-03-28, 09:08:04,INVALID,913.562,VALID,0,VALID,73.1391,VALID,520.552,VALID,24.8902,VALID,145,VALID,0,
2013-03-28, 09:09:04,VALID,918.068,VALID,0,VALID,73.9319,VALID,529.577,VALID,24.8707,VALID,155,VALID,0,
2013-03-28, 09:10:04,INVALID,914.63,VALID,0,VALID,73.2,VALID,543.008,VALID,24.8511,VALID,175,VALID,0,
2013-03-28, 09:11:04,INVALID,923.095,VALID,0,VALID,73.505,VALID,538.817,VALID,24.9683,VALID,174,VALID,0,
2013-03-28, 09:12:04,INVALID,915.312,VALID,0,VALID,71.1265,VALID,542.255,VALID,25.1031,VALID,168,VALID,0,
2013-03-28, 09:13:04,INVALID,920.072,VALID,0,VALID,71.3857,VALID,556.867,VALID,25.1617,VALID,171,VALID,0,
2013-03-28, 09:14:04,VALID,919.544,VALID,0,VALID,72.0108,VALID,565.033,VALID,25.2984,VALID,171,VALID,0,
2013-03-28, 09:15:04,INVALID,916.141,VALID,0,VALID,71.6144,VALID,566.537,VALID,25.4156,VALID,185,VALID,0,
2013-03-28, 09:16:04,VALID,917.78,VALID,0,VALID,70.3641,VALID,577.926,VALID,25.4741,VALID,197,VALID,0,
2013-03-28, 09:17:04,VALID,915.954,VALID,0,VALID,72.8112,VALID,577.496,VALID,25.4937,VALID,155,VALID,0,
2013-03-28, 09:18:04,INVALID,918.364,VALID,0,VALID,72.9027,VALID,579.645,VALID,25.7085,VALID,186,VALID,0,
2013-03-28, 09:19:04,INVALID,920.454,VALID,0,VALID,72.3843,VALID,589.53,VALID,25.8843,VALID,164,VALID,0,
2013-03-28, 09:20:04,VALID,918.699,VALID,0,VALID,70.204,VALID,594.902,VALID,25.982,VALID,128,VALID,0,
2013-03-28, 09:21:04,INVALID,914.145,VALID,0,VALID,71.0274,VALID,597.588,VALID,25.9429,VALID,83,VALID,0,
2013-03-28, 09:22:04,VALID,920.327,VALID,0,VALID,69.9982,VALID,602.637,VALID,26.0796,VALID,83,VALID,0,
2013-03-28, 09:23:04,INVALID,916.612,VALID,0,VALID,68.4125,VALID,603.39,VALID,25.982,VALID,236,VALID,0,
2013-03-28, 09:24:04,VALID,918.983,VALID,0,VALID,67.9704,VALID,599.844,VALID,25.98,VALID,207,VALID,0,
2013-03-28, 09:25:04,VALID,917.708,VALID,0,VALID,68.7861,VALID,592.753,VALID,25.9214,VALID,178,VALID,0,
2013-03-28, 09:26:04,VALID,917.927,VALID,0,VALID,70.3184,VALID,588.455,VALID,25.9644,VALID,197,VALID,0,
2013-03-28, 09:27:04,VALID,918.054,VALID,0,VALID,68.8013,VALID,579.108,VALID,25.9839,VALID,233,VALID,0,
2013-03-28, 09:28:04,VALID,918.109,VALID,0,VALID,69.4188,VALID,596.406,VALID,25.9058,VALID,231,VALID,0,
2013-03-28, 09:29:04,VALID,918.325,VALID,0,VALID,70.8673,VALID,596.083,VALID,26.0621,VALID,278,VALID,0,
2013-03-28, 09:30:04,VALID,918.109,VALID,0,VALID,71.3171,VALID,609.729,VALID,26.2379,VALID,182,VALID,0,
2013-03-28, 09:31:04,VALID,918.015,VALID,0,VALID,68.7708,VALID,594.687,VALID,26.0816,VALID,155,VALID,0,
2013-03-28, 09:32:04,VALID,918.463,VALID,0,VALID,71.1189,VALID,615.853,VALID,26.0425,VALID,170,VALID,0,
2013-03-28, 09:33:04,VALID,918.46,VALID,0,VALID,71.5534,VALID,620.688,VALID,26.2164,VALID,172,VALID,0,
2013-03-28, 09:34:04,VALID,918.104,VALID,0,VALID,70.2117,VALID,615.745,VALID,26.314,VALID,163,VALID,0,
2013-03-28, 09:35:04,VALID,918.135,VALID,0,VALID,70.6996,VALID,644.754,VALID,26.4703,VALID,165,VALID,0,
2013-03-28, 09:36:04,VALID,918.019,VALID,0,VALID,70.4861,VALID,639.275,VALID,26.7654,VALID,165,VALID,0,
2013-03-28, 09:37:04,VALID,918.679,VALID,0,VALID,71.7058,VALID,640.457,VALID,27.076,VALID,71,VALID,0,
2013-03-28, 09:38:04,VALID,918.023,VALID,0,VALID,66.4914,VALID,650.986,VALID,27.2323,VALID,85,VALID,0,
2013-03-28, 09:39:04,VALID,917.204,VALID,0,VALID,67.6121,VALID,659.474,VALID,27.2909,VALID,125,VALID,0,
2013-03-28, 09:40:04,VALID,917.477,VALID,0,VALID,65.1116,VALID,656.251,VALID,27.3495,VALID,177,VALID,0,
2013-03-28, 09:41:04,VALID,918.796,VALID,0,VALID,67.5435,VALID,665.92,VALID,27.5449,VALID,30,VALID,0,
2013-03-28, 09:42:04,VALID,918.359,VALID,0,VALID,66.0569,VALID,675.912,VALID,27.7229,VALID,336,VALID,0,
2013-03-28, 09:43:04,VALID,920.353,VALID,0,VALID,64.6085,VALID,696.434,VALID,27.584,VALID,307,VALID,0,
2013-03-28, 09:44:04,VALID,918.998,VALID,0,VALID,65.6147,VALID,742.741,VALID,27.3104,VALID,315,VALID,0,
2013-03-28, 09:45:04,VALID,918.023,VALID,0,VALID,66.3542,VALID,702.45,VALID,27.2518,VALID,303,VALID,0,
2013-03-28, 09:46:04,VALID,918.165,VALID,0,VALID,66.4152,VALID,656.143,VALID,27.115,VALID,321,VALID,0,
2013-03-28, 09:47:04,VALID,917.794,VALID,0,VALID,65.6452,VALID,365.3,VALID,26.9197,VALID,303,VALID,0,
2013-03-28, 09:48:04,VALID,918.045,VALID,0,VALID,66.7811,VALID,284.504,VALID,26.4898,VALID,294,VALID,0,
2013-03-28, 09:49:04,VALID,918.613,VALID,0,VALID,69.2206,VALID,284.397,VALID,26.1968,VALID,296,VALID,0,
2013-03-28, 09:50:04,INVALID,914.391,VALID,0,VALID,68.9995,VALID,290.951,VALID,26.1773,VALID,322,VALID,0,
2013-03-28, 09:51:04,VALID,920.458,VALID,0,VALID,68.7098,VALID,279.777,VALID,26.275,VALID,18,VALID,0,
2013-03-28, 09:52:04,INVALID,917.957,VALID,0,VALID,66.0721,VALID,277.843,VALID,26.3531,VALID,4,VALID,0,
2013-03-28, 09:53:04,VALID,918.431,VALID,0,VALID,70.448,VALID,272.578,VALID,26.312,VALID,339,VALID,0,
2013-03-28, 09:54:04,INVALID,912.225,VALID,0,VALID,67.2766,VALID,272.363,VALID,26.3336,VALID,34,VALID,0,
2013-03-28, 09:55:04,VALID,918.298,VALID,0,VALID,67.2995,VALID,272.148,VALID,26.3336,VALID,22,VALID,0,
2013-03-28, 09:56:04,VALID,918.787,VALID,0,VALID,65.6757,VALID,262.909,VALID,26.3511,VALID,22,VALID,0,
2013-03-28, 09:57:04,VALID,919.201,VALID,0,VALID,65.1345,VALID,269.248,VALID,26.4292,VALID,325,VALID,0,
2013-03-28, 09:58:04,INVALID,923.332,VALID,0,VALID,66.8497,VALID,314.48,VALID,26.312,VALID,301,VALID,0,
2013-03-28, 09:59:04,VALID,920.599,VALID,0,VALID,66.3923,VALID,392.912,VALID,26.0972,VALID,301,VALID,0,
2013-03-28, 10:00:04,INVALID,918.022,VALID,0,VALID,66.804,VALID,292.67,VALID,25.982,VALID,301,VALID,0,
2013-03-28, 10:01:04,VALID,919.871,VALID,0,VALID,67.5358,VALID,297.075,VALID,25.9429,VALID,301,VALID,0,
2013-03-28, 10:02:04,VALID,918.305,VALID,0,VALID,68.626,VALID,288.157,VALID,25.9214,VALID,301,VALID,0,
2013-03-28, 10:03:04,VALID,918.963,VALID,0,VALID,69.3121,VALID,318.026,VALID,26.0406,VALID,325,VALID,0,
2013-03-28, 10:04:04,VALID,918.302,VALID,0,VALID,69.3121,VALID,288.909,VALID,26.0601,VALID,291,VALID,0,
2013-03-28, 10:05:04,VALID,917.567,VALID,0,VALID,69.5332,VALID,317.918,VALID,26.021,VALID,291,VALID,0,
2013-03-28, 10:06:04,INVALID,914.733,VALID,0,VALID,69.4798,VALID,472.204,VALID,26.1167,VALID,332,VALID,0,
2013-03-28, 10:07:04,VALID,918.078,VALID,0,VALID,71.1875,VALID,700.301,VALID,26.1948,VALID,358,VALID,0,
2013-03-28, 10:08:04,VALID,918.085,VALID,0,VALID,68.9004,VALID,871.67,VALID,26.3922,VALID,339,VALID,0,
2013-03-28, 10:09:04,VALID,918.078,VALID,0,VALID,69.4569,VALID,467.691,VALID,26.6071,VALID,333,VALID,0,